Regional Weather Roundup
Issued by NWS Kansas City/Pleasant Hill, MO

Home | Current Version | Previous Version | Text Only | Print | Product List | Glossary On
Versions: 1 2 3 4 5 6 7 8 9 10 11 12 13 14 15 16 17 18 19 20 21 22 23 24 25 26 27 28 29 30 31 32 33 34 35 36 37 38 39 40 41 42 43 44 45 46 47 48 49 50
858
ASUS43 KEAX 191610
RWREAX

WEATHER ROUNDUP FOR EASTERN KANSAS AND NORTHWEST MISSOURI
NATIONAL WEATHER SERVICE KANSAS CITY/PLEASANT HILL MO
1000 AM CST SUN FEB 19 2017

KSZ040-057-103>105-MOZ028-029-037-043-191700-
...KANSAS CITY METROPOLITAN AREA...

CITY           SKY/WX    TMP DP  RH WIND       PRES   REMARKS
K.C. INTL      MOSUNNY   60  53  77 S12       29.97F
K.C. DOWNTOWN  SUNNY     62  52  69 S8        29.98S
LEES SUMMIT    SUNNY     58  52  80 S10       30.00R
OLATHE - IXD   SUNNY     59  52  77 S10       29.98F
OLATHE - OJC   SUNNY     50  50 100 SE10      29.97F
LAWRENCE       SUNNY     58  52  80 SE6       29.97S

$$

MOZ001>008-011>017-020>025-030>033-038>040-044>046-053-054-191700-
...NORTHERN AND CENTRAL MISSOURI...

CITY           SKY/WX    TMP DP  RH WIND       PRES   REMARKS
ST. JOSEPH     MOSUNNY   58  52  80 S7        29.96F
WARRENSBURG    MOSUNNY   54  52  94 S5        30.01S
WHITEMAN AFB   SUNNY     58  58 100 S5        30.00S
CLINTON        SUNNY     57  54  88 SE7       30.01F
SEDALIA        SUNNY     63  52  67 SE8       30.03S
WARSAW         NOT AVBL
CHILLICOTHE      N/A     58  51  78 VRB5      30.01S
KIRKSVILLE     SUNNY     61  51  70 SW6       30.03R

$$

MOZ041-047>049-056>058-063>065-088>090-097-191700-
...EASTERN AND SOUTHERN MISSOURI...

CITY           SKY/WX    TMP DP  RH WIND       PRES   REMARKS
ST. LOUIS INTL MOSUNNY   60  50  69 W3        30.07
SPIRIT OF STL  SUNNY     56  52  86 NW8       30.06S
COLUMBIA       SUNNY     58  51  78 S6        30.05R
JEFFERSON CITY SUNNY     53  47  79 E5        30.06R
ROLLA          SUNNY     59  53  80 S7        30.06R
OSAGE BEACH    SUNNY     58  50  75 SE6       30.05S
SPRINGFIELD    SUNNY     61  52  72 SE10      30.02R
BRANSON        MOSUNNY   55  52  88 E7        30.05R
JOPLIN         SUNNY     63  56  78 S9        29.99S
WEST PLAINS    PTSUNNY   55  53  93 SE5       30.09R

$$

IAZ060-094-KSZ022-034>040-054-083-096-NEZ052-066-093-191700-
...KANSAS...SOUTHEAST NEBRASKA AND IOWA...

CITY           SKY/WX    TMP DP  RH WIND       PRES   REMARKS
TOPEKA         MOSUNNY   56  50  80 S9        29.96S
MANHATTAN      CLOUDY    56  52  86 S14       29.93R
EMPORIA        FOG       50  50 100 SE10      29.94F VSB 1
CHANUTE        CLOUDY    53  52  96 SE8       29.98S FOG
WICHITA        FOG       52  52 100 S13       29.92S VSB 1/4
OMAHA          PTSUNNY   54  45  71 S13       29.90R
LINCOLN        CLOUDY    56  48  74 S13       29.88F
FALLS CITY     PTSUNNY   54  49  83 SE10      29.93R
LAMONI         MOSUNNY   56  47  71 S6        29.98S
DES MOINES     MOSUNNY   55  41  59 S13       29.97S

$$





USA.gov is the U.S. government's official web portal to all federal, state and local government web resources and services.